Find Starlink 32268

NORAD ID: 60372 Int'l Des: 2024-138 Owner: SPXS Country: US Constellation: starlink operational
LEOCIRCULAR

当前视图

正在加载3D地球...

About Starlink 32268

Starlink 32268 (NORAD 60372) is a starlink constellation satellite (v2 mini) launched Aug 4, 2024 by SPXS of US. It operates in LEO, CIRCULAR orbit with a mass of 730.00 kg.

关于 Starlink 32268

正在加载描述...

即将过境

Passes for default location (London). Set your location on the main map for personalized predictions.

高度历史

Loading altitude history...

两行轨道根数

1 60372U 24138T 26175.28469332 .00001025 00000-0 46717-4 0 9991
2 60372 53.1589 174.7769 0000958 84.7322 275.3788 15.30197328106949
Epoch: Jun 24, 2026 • Age: 25 hours

当前状态

高度 479.3 km
速度 7.63 km/s
星下点 -14.70°S, 127.69°E
发射日期 Aug 4, 2024
运行时间 1.8 years
类型 internet

技术详情

分类 Payload
质量 730.00 kg
干质量 700.00 kg
总质量 730.00 kg
长度 0.30 m
直径 4.10 m
跨度 29.00 m
形状 Box + pan
制造商 SPXS
平台类型 Starlink V2M
阶段状态 In Orbit
所有者/国家 SPXS/US

Most Searched